Location: ?ejeti?ky
(50.4060°N, 14.9016°E)
Time: 11:02:50
(UTC+00:00)

STARLINK-1282 - Pass Details

Date: 10 October 2020
Orbit: 549 x 550 km, 53.0° (Epoch: 21 October)

Event Time Altitude Azimuth Distance (km) Brightness Sun altitude
Exits shadow 01:59:31 24° 81° (E) 1,155 5.8 -30.9°
Drops below altitude 10° 02:01:19 10° 72° (ENE) 1,826 7.1 -30.7°
Sets 02:03:35 0° 69° (ENE) 2,722 8.3 -30.4°
